Cloud_Cover
6 8 40 51 41 60 100 40 34 90 5 7 0 0 0 0 1 4 5 100 100 100 100 100 100 100 100 100 100 100 100 100 100 100 100 100 100 100
100 98 48 40 6 54 100 68 5 5 10 5 5 0 0 0 0 0 6 100 100 100 100 100 100 100 100 100 100 100 100 100 100 100 100 100 100 100
92 100 99 87 53 99 100 49 5 4 39 7 5 4 0 0 0 0 0 62 100 100 100 100 100 100 100 100 100 100 100 100 100 100 100 100 100 100
100 100 100 99 100 100 100 100 61 5 5 5 12 21 5 5 2 3 0 0 82 100 100 100 100 100 100 100 100 100 100 100 100 100 100 100 100 100
62 100 100 100 100 95 100 100 100 30 76 12 7 20 5 5 5 5 1 5 1 36 100 100 100 100 100 100 100 100 100 100 100 97 100 100 100 100
40 99 100 95 100 98 100 100 67 27 46 86 55 65 16 5 5 5 5 5 0 4 8 79 100 100 100 100 100 100 97 84 95 100 100 100 100 100
5 4 38 80 100 83 19 40 28 85 99 100 100 93 44 6 49 9 5 5 5 5 5 5 75 99 100 100 100 100 100 100 100 61 100 100 100 100
5 59 67 100 100 73 29 81 98 100 98 100 100 100 100 75 55 6 28 100 66 5 5 5 5 4 30 99 100 100 100 100 100 100 100 100 100 100
32 100 99 99 100 84 93 51 98 88 100 100 100 100 100 100 100 90 10 36 91 59 6 13 5 3 2 0 4 12 65 93 83 99 100 100 100 100
50 100 100 100 100 64 90 48 100 74 94 100 100 100 100 96 100 100 91 94 24 5 5 14 5 5 4 1 0 1 5 5 5 7 72 100 100 100
100 100 100 100 100 100 100 100 98 90 100 100 100 100 100 98 89 100 100 89 58 5 4 5 5 5 5 3 3 1 6 5 5 5 6 82 100 100
100 100 100 100 100 100 100 100 100 100 100 100 100 100 100 50 18 46 17 48 71 81 60 20 5 6 30 5 5 0 2 0 5 5 5 22 100 100
100 100 100 100 100 100 100 100 100 100 100 100 100 100 76 93 93 5 5 35 96 95 14 99 100 100 98 94 16 5 5 5 5 4 5 5 5 100
100 100 100 100 100 100 100 100 100 100 100 100 96 20 67 54 7 5 5 5 47 86 95 100 100 100 100 100 88 8 5 5 5 5 5 5 5 5
100 100 100 100 100 100 100 100 100 100 100 100 100 70 99 12 5 5 5 5 13 84 56 8 57 91 99 100 99 98 88 32 5 5 8 5 5 5
100 100 100 100 100 100 100 100 100 100 97 70 98 97 67 99 100 100 100 100 99 31 13 67 94 100 97 99 96 80 38 87 5 5 5 5 5 5
100 100 100 100 100 100 100 100 100 98 66 65 64 100 100 100 100 100 100 100 100 99 91 92 98 93 95 100 99 98 93 93 5 5 35 44 6 5
100 100 100 100 100 100 100 99 84 97 91 81 100 100 100 100 100 100 100 100 100 94 96 54 86 100 97 100 51 97 92 84 86 18 20 100 82 5
100 100 100 100 100 100 87 75 89 82 100 100 100 100 100 100 100 100 98 96 84 82 35 6 87 100 100 92 53 5 6 5 5 11 66 87 87 33
100 100 100 100 100 100 100 100 73 85 100 100 100 100 100 100 100 100 93 100 100 100 92 92 92 98 100 86 100 75 5 40 12 5 5 9 5 20
100 100 99 100 100 100 100 72 96 100 100 100 100 100 100 100 98 89 97 90 100 100 99 86 58 86 99 100 100 100 82 99 83 88 41 82 100 99
100 100 100 100 100 100 96 98 98 100 100 100 100 100 100 100 100 93 97 97 95 99 95 97 75 100 100 100 100 100 100 100 98 100 100 100 99 100
60 100 100 100 100 100 100 100 100 100 100 100 100 100 100 100 95 97 100 91 100 100 99 93 94 94 99 100 100 100 100 100 100 100 100 100 100 100